User: anonymous   Login
Location: Unspecified
(0.0000°N, 0.0000°E)
Time: 13:28:58
(UTC+00:00)
Language:

OBJECT-A - Orbit

View from above orbital plane
View from above orbital plane
View from above satellite
View from above satellite

Ground track
Ground track

The orbit data is extracted from the following two-line orbital elements,

1 40381U 15004A   20261.88843991 0.00000000  00000-0  00000-0 0    00
2 40381  97.3571 331.4377 0002440 311.9391  48.0607 15.27650401    01
Epoch (UTC): 17 September 2020 21:19:21
Eccentricity: 0.0002440
inclination: 97.3571°
perigee height: 481 km
apogee height: 484 km
right ascension of ascending node: 331.4377°
argument of perigee: 311.9391°
revolutions per day: 15.27650401
mean anomaly at epoch: 48.0607°
orbit number at epoch: 0

The dashed part of the orbit path shows where the satellite is in the earth's shadow,  

DLR